DW7898 Weather Reports


Display with metric or nautical units.
time (UTC)temp
F
wind
direction
speed
MPH
gust
MPH
rain 1hr
in
rain 24hr
in
rain mn
in
humidity
%
barometer
mb
20260505193337 58 73 0.0 5.0 0.00 0.04 0.00 76 1011.4
20260505192356 58 34 0.0 4.0 0.00 0.04 0.00 76 1011.3
20260505191358 58 66 1.0 6.0 0.00 0.04 0.00 75 1011.4
20260505190342 59 15 4.0 8.0 0.00 0.04 0.00 74 1011.4
20260505185344 59 344 4.0 7.0 0.00 0.04 0.00 72 1011.3
20260505184350 59 12 5.0 7.0 0.00 0.04 0.00 70 1011.2
20260505183336 59 356 4.0 8.0 0.00 0.04 0.00 70 1010.9
20260505182357 59 353 5.0 9.0 0.00 0.04 0.00 67 1011.1
20260505181338 60 336 5.0 6.0 0.00 0.04 0.00 61 1011.3
20260505180344 60 74 3.0 7.0 0.00 0.04 0.00 63 1011.0
20260505175357 60 59 5.0 9.0 0.00 0.04 0.00 61 1011.2
20260505174337 60 355 3.0 5.0 0.00 0.04 0.00 59 1011.4
20260505173342 60 342 1.0 4.0 0.00 0.04 0.00 58 1011.3
20260505172340 60 341 4.0 6.0 0.00 0.04 0.00 58 1011.6
20260505171346 61 339 3.0 11.0 0.00 0.04 0.00 56 1011.7
20260505170336 62 303 4.0 6.0 0.00 0.04 0.00 53 1011.8
20260505165357 62 10 4.0 6.0 0.00 0.04 0.00 54 1011.7
20260505164357 62 0 3.0 7.0 0.00 0.04 0.00 54 1011.5
20260505163336 62 348 4.0 17.0 0.00 0.04 0.00 54 1011.6
20260505162335 65 319 8.0 13.0 0.00 0.04 0.00 62 1011.7
20260505161337 65 219 1.0 8.0 0.00 0.04 0.00 63 1011.4
20260505160340 65 262 4.0 12.0 0.00 0.04 0.00 62 1011.0
20260505153338 65 136 5.0 15.0 0.00 0.05 0.00 57 1010.7
20260505152338 65 114 8.0 15.0 0.00 0.05 0.00 56 1010.8
20260505151343 66 127 8.0 15.0 0.00 0.05 0.00 54 1010.7
20260505150349 66 143 7.0 17.0 0.00 0.05 0.00 53 1010.5
20260505140356 65 121 5.0 15.0 0.00 0.05 0.00 63 1011.0
20260505124355 69 193 3.0 14.0 0.00 0.05 0.00 51 1011.4
20260505123341 68 113 3.0 12.0 0.00 0.05 0.00 50 1011.4
20260505122356 69 156 6.0 13.0 0.00 0.05 0.00 49 1011.7
20260505121343 69 54 0.0 4.0 0.00 0.05 0.00 54 1011.7
20260505120341 69 60 1.0 4.0 0.00 0.05 0.00 55 1011.9
20260505115357 69 351 2.0 6.0 0.00 0.05 0.00 56 1012.0
20260505114340 68 57 1.0 5.0 0.00 0.06 0.00 56 1011.9
20260505113349 67 146 2.0 3.0 0.00 0.06 0.00 56 1012.1
20260505112350 66 152 1.0 6.0 0.00 0.06 0.00 59 1012.3
20260505111338 65 106 3.0 5.0 0.00 0.06 0.00 61 1012.5
20260505110336 64 122 0.0 5.0 0.00 0.06 0.00 63 1012.5
20260505101335 64 244 2.0 8.0 0.00 0.06 0.00 61 1012.7
20260505100339 64 213 3.0 7.0 0.00 0.06 0.00 61 1012.7
20260505095338 64 28 0.0 3.0 0.00 0.06 0.00 64 1012.6
20260505094356 63 56 0.0 3.0 0.00 0.06 0.00 69 1012.6
20260505093342 62 56 2.0 7.0 0.00 0.06 0.00 71 1012.5
20260505092345 61 120 3.0 6.0 0.00 0.06 0.00 73 1012.2
20260505091351 61 15 4.0 6.0 0.00 0.06 0.00 74 1012.1
20260505090337 61 255 3.0 6.0 0.00 0.06 0.00 73 1013.0
20260505085338 61 254 3.0 6.0 0.00 0.06 0.00 71 1013.0
20260505084337 61 269 3.0 6.0 0.00 0.06 0.00 69 1012.9
20260505083338 61 231 3.0 5.0 0.00 0.06 0.00 68 1012.8
20260505082338 61 79 0.0 0.0 0.00 0.06 0.00 70 1012.5
20260505081336 61 80 0.0 4.0 0.00 0.06 0.00 74 1012.5
20260505080355 60 90 2.0 6.0 0.00 0.06 0.00 76 1012.5
20260505075353 59 233 0.0 4.0 0.00 0.06 0.00 82 1012.5
20260505074336 57 218 0.0 3.0 0.00 0.06 0.00 84 1012.6
20260505073337 57 215 2.0 4.0 0.00 0.06 0.00 85 1012.9
20260505072354 57 209 2.0 3.0 0.00 0.06 0.00 89 1012.9
20260505071342 57 205 1.0 3.0 0.00 0.06 0.00 90 1012.8
20260505070347 56 202 0.0 3.0 0.00 0.06 0.00 92 1013.0
20260505065349 56 203 0.0 3.0 0.00 0.06 0.00 94 1012.9
20260505064355 56 217 1.0 2.0 0.00 0.06 0.00 95 1012.9
20260505063355 55 214 0.0 1.0 0.00 0.06 0.00 95 1012.8
20260505062355 54 214 0.0 2.0 0.00 0.06 0.00 95 1012.9
20260505061355 54 214 0.0 1.0 0.00 0.06 0.00 95 1012.9
20260505060340 53 214 0.0 0.0 0.00 0.06 0.00 95 1013.0
20260505055341 53 214 0.0 2.0 0.00 0.06 0.00 95 1013.0
20260505054345 54 214 1.0 2.0 0.00 0.06 0.00 96 1013.0
20260505053353 53 214 0.0 2.0 0.00 0.06 0.00 96 1012.8
20260505052352 53 214 0.0 3.0 0.00 0.06 0.00 96 1012.8
20260505051338 52 218 1.0 2.0 0.00 0.06 0.00 95 1012.9
20260505050344 52 218 1.0 2.0 0.00 0.06 0.00 95 1012.8
20260505041407 53 206 0.0 0.0 0.00 0.06 0.00 94 1013.0
20260505040402 53 206 0.0 0.0 0.00 0.06 0.00 94 1012.9
20260505035409 53 206 0.0 2.0 0.00 0.06 0.00 95 1013.0
20260505034401 53 206 1.0 3.0 0.00 0.06 0.00 94 1012.9
20260505033354 53 206 0.0 3.0 0.00 0.06 0.00 94 1012.8
20260505032403 53 206 1.0 3.0 0.00 0.06 0.00 94 1012.9
20260505031416 53 206 0.0 0.0 0.00 0.06 0.00 94 1012.9
20260505030409 53 206 2.0 3.0 0.00 0.06 0.00 94 1012.9
20260505025402 54 206 0.0 0.0 0.00 0.06 0.00 94 1012.9
20260505024359 54 206 0.0 0.0 0.00 0.06 0.00 94 1013.0
20260505023355 54 206 0.0 1.0 0.00 0.06 0.00 94 1013.0
20260505022408 54 206 1.0 4.0 0.00 0.06 0.00 93 1012.9
20260505021404 54 206 0.0 0.0 0.00 0.06 0.00 92 1012.9
20260505020357 54 206 0.0 1.0 0.00 0.06 0.00 93 1012.8
20260505015406 54 206 0.0 0.0 0.00 0.06 0.00 92 1012.8
20260505013403 55 206 1.0 2.0 0.00 0.06 0.00 93 1012.8
20260505012406 55 206 0.0 1.0 0.00 0.06 0.00 93 1012.9
20260505011404 55 206 1.0 4.0 0.00 0.06 0.00 93 1012.9
20260505010356 55 206 0.0 2.0 0.00 0.06 0.00 93 1013.0
20260505005400 55 206 1.0 5.0 0.01 0.06 0.00 93 1013.0
20260505003401 56 207 1.0 4.0 0.01 0.06 0.00 93 1012.9
20260505002358 56 208 0.0 5.0 0.01 0.06 0.00 93 1013.1
20260505001402 56 209 1.0 4.0 0.01 0.06 0.00 94 1013.1
20260505000413 56 209 1.0 2.0 0.01 0.06 0.00 93 1013.1
20260504235357 56 208 0.0 3.0 0.00 0.06 0.00 93 1013.1
20260504234405 56 209 1.0 5.0 0.00 0.06 0.00 93 1012.9
20260504233401 57 210 1.0 4.0 0.00 0.06 0.00 93 1013.0
20260504232354 57 209 2.0 3.0 0.00 0.06 0.00 92 1013.0
20260504231406 57 209 2.0 4.0 0.00 0.06 0.00 92 1013.0
20260504230413 57 209 1.0 3.0 0.00 0.06 0.00 92 1012.9
20260504225402 57 209 2.0 5.0 0.00 0.06 0.00 92 1012.9
20260504224403 57 210 1.0 4.0 0.00 0.06 0.00 91 1012.8
20260504223402 57 206 1.0 5.0 0.00 0.06 0.00 90 1012.6
20260504222354 57 206 1.0 7.0 0.00 0.06 0.00 90 1012.6
20260504221356 58 207 2.0 5.0 0.00 0.06 0.00 88 1012.7
20260504220400 58 204 1.0 3.0 0.00 0.06 0.00 88 1012.5
20260504215413 58 259 1.0 3.0 0.00 0.06 0.05 86 1012.4
20260504214354 59 258 1.0 4.0 0.01 0.06 0.05 85 1012.5
20260504213413 59 251 3.0 5.0 0.02 0.06 0.05 85 1012.6
20260504212419 60 168 1.0 4.0 0.02 0.06 0.05 83 1012.7
20260504211419 60 166 1.0 3.0 0.02 0.06 0.05 82 1012.8
20260504210411 60 291 0.0 2.0 0.02 0.06 0.05 81 1013.1
20260504205348 60 291 1.0 3.0 0.03 0.06 0.03 79 1012.9
20260504204415 60 291 0.0 6.0 0.02 0.07 0.03 78 1013.2
20260504203410 61 318 1.0 7.0 0.02 0.06 0.03 77 1013.3
20260504202356 61 259 5.0 13.0 0.01 0.06 0.02 76 1013.6
20260504201400 62 261 8.0 22.0 0.01 0.06 0.02 76 1013.5
20260504200400 63 253 9.0 14.0 0.01 0.06 0.02 83 1013.3
20260504195359 63 223 2.0 5.0 0.00 0.05 0.02 84 1012.7
20260504194358 63 219 1.0 4.0 0.00 0.05 0.02 83 1012.5